Freeland, MI

6:55 AM EST on February 20, 2017 (GMT -0500)
MBS International

Weather History for KMBS - November, 2014

Change the Weather History Date:

Wednesday, November 5, 2014

  Actual Average Record
Temperature  
Mean Temperature 46 °F 43 °F  
Max Temperature 52 °F 51 °F 74 °F (2015)
Min Temperature 40 °F 35 °F 26 °F (2012)
Degree Days  
Heating Degree Days 19    
Month to date heating degree days 109  
Since 1 July heating degree days 700  
Cooling Degree Days 0    
Month to date cooling degree days 0  
Year to date cooling degree days 539  
Moisture  
Dew Point 34 °F    
Average Humidity 67    
Maximum Humidity 83    
Minimum Humidity 50    
Precipitation  
Precipitation T in 0.10 in 2.18 in (2005)
Month to date precipitation 0.04 0.47  
Year to date precipitation 28.23 27.45  
Snow  
Snow 0.00 in - - ()
Month to date snowfall 0.0  
Since 1 July snowfall T  
Since 1 September snowfall T  
Snow Depth 0.00 in    
Sea Level Pressure  
Sea Level Pressure 30.05 in    
Wind  
Wind Speed 10 mph (WSW)    
Max Wind Speed 22 mph    
Max Gust Speed 29 mph    
Visibility 10 miles    
Events Rain    
T = Trace of Precipitation, MM = Missing Value Source: NWS Daily Summary

Daily Weather History Graph

Daily Weather History Graph

Search for Another Location

Airport or City:

Trip Planner

Search our weather history database for the weather conditions in past years. The results will help you decide how hot, cold, wet, or windy it might be!

Date:

Astronomy

Nov. 05, 2014 Rise Set
Actual Time 7:17 AM EST 5:22 PM EST
Civil Twilight 6:46 AM EST 5:52 PM EST
Nautical Twilight 6:12 AM EST 6:26 PM EST
Astronomical Twilight 5:39 AM EST 6:59 PM EST
Moon 4:49 PM EST (11/5) 5:38 AM EST (11/5)
Length of Visible Light 11h 05m
Length of Day
10h 05m
Waxing Gibbous, 98% of the Moon is Illuminated
Nov 5
Waxing Gibbous
Nov 6
Full
Nov 14
Last Quarter
Nov 22
New
Nov 29
First Quarter

Hourly Weather History & Observations

Time (EST) Temp. Windchill Dew Point Humidity Pressure Visibility Wind Dir Wind Speed Gust Speed Precip Events Conditions
12:53 AM 43.0 °F 36.4 °F 37.0 °F 80% 29.96 in 10.0 mi SSW 12.7 mph - N/A   Clear
1:53 AM 45.0 °F 37.1 °F 37.0 °F 74% 29.96 in 10.0 mi SW 19.6 mph 27.6 mph N/A   Partly Cloudy
2:53 AM 44.1 °F 35.4 °F 37.9 °F 79% 29.97 in 10.0 mi SW 21.9 mph 29.9 mph N/A   Clear
3:53 AM 44.1 °F 36.8 °F 37.9 °F 79% 29.98 in 10.0 mi SW 16.1 mph - N/A   Scattered Clouds
4:53 AM 45.0 °F 39.3 °F 39.0 °F 80% 30.00 in 10.0 mi WSW 11.5 mph - N/A   Overcast
5:53 AM 44.1 °F 39.5 °F 37.9 °F 79% 30.02 in 10.0 mi West 8.1 mph - N/A   Overcast
6:53 AM 44.1 °F 39.5 °F 35.1 °F 71% 30.04 in 10.0 mi WSW 8.1 mph - N/A   Mostly Cloudy
7:53 AM 41.0 °F 35.8 °F 32.0 °F 70% 30.06 in 10.0 mi WSW 8.1 mph - N/A   Clear
8:53 AM 44.1 °F 38.6 °F 32.0 °F 63% 30.09 in 10.0 mi WSW 10.4 mph - N/A   Clear
9:53 AM 46.0 °F 39.6 °F 32.0 °F 58% 30.09 in 10.0 mi West 15.0 mph 24.2 mph N/A   Clear
10:53 AM 48.0 °F - 32.0 °F 54% 30.10 in 10.0 mi WSW 16.1 mph 21.9 mph N/A   Scattered Clouds
11:53 AM 48.9 °F - 30.9 °F 50% 30.11 in 10.0 mi West 16.1 mph - N/A   Partly Cloudy
12:53 PM 48.9 °F - 32.0 °F 52% 30.09 in 10.0 mi West 12.7 mph - N/A   Partly Cloudy
1:53 PM 50.0 °F - 33.1 °F 52% 30.08 in 10.0 mi WSW 12.7 mph - N/A   Partly Cloudy
2:53 PM 50.0 °F - 33.1 °F 52% 30.06 in 10.0 mi West 11.5 mph - N/A   Clear
3:53 PM 50.0 °F - 32.0 °F 50% 30.07 in 10.0 mi WSW 10.4 mph - N/A   Clear
4:53 PM 48.9 °F - 33.1 °F 54% 30.07 in 10.0 mi WSW 6.9 mph - N/A   Clear
5:53 PM 46.9 °F - 32.0 °F 56% 30.08 in 10.0 mi WSW 9.2 mph - N/A   Mostly Cloudy
6:53 PM 46.0 °F 43.9 °F 32.0 °F 58% 30.09 in 10.0 mi SW 4.6 mph - N/A   Mostly Cloudy
7:53 PM 45.0 °F 42.6 °F 32.0 °F 60% 30.07 in 10.0 mi SSW 4.6 mph - N/A   Overcast
8:53 PM 45.0 °F - 33.1 °F 63% 30.07 in 10.0 mi Calm Calm - N/A   Mostly Cloudy
9:53 PM 44.1 °F 40.8 °F 35.1 °F 71% 30.04 in 10.0 mi East 5.8 mph - N/A   Overcast
10:53 PM 45.0 °F 43.5 °F 35.1 °F 68% 30.01 in 10.0 mi East 3.5 mph - 0.00 in Rain Light Rain
11:53 PM 44.1 °F 42.5 °F 39.0 °F 82% 29.99 in 10.0 mi NNE 3.5 mph - 0.00 in Rain Light Rain